KGGWKOLF

Guest
Details From KGGW - Wokal Fld Glasgow Intl
To KOLF - L M Clayton
Flight Number -
Tags Generated
Created
Modified
Stats Distance 41 nm / 76 km
Max Altitude 0 ft / 0 m
Waypoints 2
Social Downloads 1
Likes 0
Share VATSIM

Download

Looking for another format? Having issues loading an existing format? Contact us
Advertisement - Login to hide

Notes

Generated

Route

KGGW KOLF

ID Type Via Altitude Latitude Longitude Leg Dist Tot Dist Heading (true) Name
O KGGW APT - 0 ft / 0 m 48.21284˚ -106.59991˚ - 0 nm - Wokal Fld Glasgow Intl
O KOLF APT - 0 ft / 0 m 48.09799˚ -105.58407˚ 41 nm 41 nm 99° / 100° -

Altitude Profile

Advertisement - Login to hide

KGGW

Details ICAO KGGW (GGW)
Name Wokal Fld Glasgow Intl
Region United States
Timezone America/Denver (UTC-6.0)
Stats Elevation 2,294 ft / 699 m (AMSL)
Location 48.212244° -106.602046°
Runways 2
Magnetic Variation 9.856° E

METAR

KGGW 221153Z AUTO 00000KT 10SM CLR 15/10 A2989 RMK AO2 SLP113 T01500100 10189 20139 53005

Decode

TAF

KGGW 221130Z 2212/2312 VRB04KT P6SM BKN090 FM222000 VRB03KT P6SM VCSH SCT100 FM222200 02006KT P6SM -SHRA BKN100 FM230100 05006KT P6SM VCSH BKN100 FM230700 07006KT P6SM SCT070

Decode

Departure Runways

ID Width Length Bearing (true) Bearing (mag) Surface Threshold Offset Overrun Length
08 75 ft / 23 m 4,986 ft / 1,520 m 89.98° 80.12° Asphalt 0 ft / 0 m 1,345 ft / 410 m
12 100 ft / 30 m 4,995 ft / 1,522 m 134.08° 124.22° Asphalt 0 ft / 0 m 900 ft / 274 m
26 75 ft / 23 m 4,986 ft / 1,520 m 270.00° 260.14° Asphalt 0 ft / 0 m 0 ft / 0 m
30 100 ft / 30 m 4,995 ft / 1,522 m 314.09° 304.23° Asphalt 0 ft / 0 m 0 ft / 0 m

KOLF

Details ICAO KOLF (OLF)
Name L M Clayton
Region United States
Timezone America/Denver (UTC-6.0)
Stats Elevation 1,986 ft / 605 m (AMSL)
Location 48.094505° -105.575050°
Runways 1
Magnetic Variation 9.225° E

METAR

KOLF 221153Z AUTO 00000KT 10SM SCT120 14/13 A2989 RMK AO2 SLP113 T01440128 10156 20133 53010 TSNO

Decode

TAF

KOLF 221130Z 2212/2312 VRB03KT P6SM BKN110 FM221300 VRB03KT P6SM VCSH BKN100 FM222100 01005KT P6SM -SHRA BKN080 FM230100 04007KT P6SM VCSH SCT110 FM231100 06006KT P6SM BKN070

Decode

Destination Runways

ID Width Length Bearing (true) Bearing (mag) Surface Threshold Offset Overrun Length
11 100 ft / 30 m 5,080 ft / 1,548 m 120.05° 110.83° Asphalt 0 ft / 0 m 0 ft / 0 m
29 100 ft / 30 m 5,080 ft / 1,548 m 300.07° 290.85° Asphalt 0 ft / 0 m 0 ft / 0 m